{"data":{"norad_id":62441,"epoch":"2026-09-21T20:16:58.178784Z","epoch_age_seconds":58318,"freshness":"FRESH","line1":"1 62441U 24251K   26264.84511781  .00009168  00000+0  28215-3 0  9990","line2":"2 62441  53.1597 141.1404 0001291  65.3477 294.7660 15.34399536 97861","mean_motion":15.34399536,"eccentricity":0.0001291,"inclination_deg":53.1597,"raan_deg":141.1404,"arg_perigee_deg":65.3477,"mean_anomaly_deg":294.766,"bstar":0.00028215,"rev_number":9786,"period_min":93.847786460749,"perigee_km":461.82146666018,"apogee_km":463.58777196629,"semimajor_km":6840.8416193132,"source":"CELESTRAK","updated_at":"2026-09-22T09:00:49.581758Z"}}